SL-16 DEB, 22665

Orbit data source: Space-Track

SL-16 DEB, 22665 is space debris in LEO originally from a launch on Fri, 25 Dec 1992 UTC launched from the Tyuratam Missile And Space Complex (TTMTR). Debris objects in space refer to the collection of defunct objects orbiting the Earth. Examples of debris include non-operational satellites, rocket bodies, and fragments generated from explosions, collisions, or faulty payload assembly.

Loading next visibility...
Identifier
22665, 1992-093JA
Orbit
LEO
Country
Flag of CISCIS
Related business
Manufacturer
Unknown
Mission
Spacecraft
Bus & Motor
Unknown
Mass
Unknown
Launch date (UTC)
1992-12-25 (33 years ago)
Launch vehicle
Unknown
Launch site
Tyuratam Missile And Space Complex (TTMTR)
Object type
Payload
Rocket body
Debris
Shape & HBR
Unknown shape, 0.1 m
Radar Cross Section
Small (<0.1 m²)

Expand to show TLE details & history
Last TLE update: 2 days ago

TLE from 2 days ago
0 SL-16 DEB
1 22665U 92093JA  25294.54025985  .00000471  00000-0  30136-3 0  9992
2 22665  71.0754 125.5709 0065962 114.1933 278.2337 14.07368150668250
Epoch: 2025-10-21T12:57Z
TLE epoch observation values (Epoch: 2025-10-21T12:57:58.451Z)
Latitude
29.84569°
Longitude
-87.86482°
Altitude
865.067 km
Speed
7.426 km/s
True Right ascension
09h 07m 25s
True Declination
29° 41' 59"
Sunlit
Object was in daylight at epoch
Visualization orbit readout
Latitude
Unknown
Longitude
Unknown
Altitude
Unknown
Speed
Unknown
Apparent Right ascension
Unknown
Apparent Declination
Unknown
Sunlit
N/A
Visualization observer readout
Local Sidereal Time
19:32:01
Azimuth
Unknown
Elevation
Unknown
Doppler factor
Unknown
Orbital elements
Apogee altitude
914.103 km
Perigee altitude
818.531 km
Semi-major axis
7,244.454 km
Eccentricity
0.0066
Inclination
71.0754°
RAAN
125.5709°
Arg. of periapsis
114.1933°
True anomaly
277.48476°
Mean anomaly
278.2337°
Eccentric anomaly
277.85932°
Mean motion
3.51994 °/min
Orbital period
102.27 mins
BSTAR
0.00030136
Loading maneuver chart data...
Computing Atmospheric mass density...
Loading historical data...
Loading historical data...
Loading historical data...
Loading historical data...
Loading historical data...
Loading historical data...
Loading historical data...

Documentation

Showing up to 5 results
|